Weather in Denia

Spain     38°50′23″N   0°05′57″E
temp.,
°C
wind,
m/s
gust,
m/s
humid.,
%
clouds,
%
prec.,
mm/h
press.,
hPa
HPBL,
m
25 february, thu
thu2501:00+8nnw11930 0.0 103227
04:00+8nnw129421 0.0 103035
07:00+10nnw129160 0.0 103052
10:00+11n228391 0.0 1031346
13:00+14ne327370 0.0 1030499
16:00+14ne327494 0.0 1029460
19:00+10nne129197 0.0 102937
22:00+9nnw129486 0.0 103027
26 february, fri
fri2601:00+9nnw239580 0.0 103057
04:00+10nnw359493 0.0 1029194
07:00+9nnw359363 0.0 1029201
10:00+11nnw458363 0.0 1030407
13:00+14n557281 0.0 1030528
16:00+14n557080 0.0 1028508
19:00+10nnw338870 0.0 102895
22:00+9nw339110 0.0 102954
27 february, sat
sat2701:00+8nw33877 0.0 102952
04:00+8nnw33860 0.0 102849
07:00+7nw34860 0.0 102758
10:00+12nnw34670 0.0 1028368
13:00+14n34610 0.0 1028597
16:00+14n336462 0.0 1026571
19:00+10nnw238482 0.0 102650
22:00+11nw3381100 0.0 1028153
28 february, sun
sun2801:00+10nnw239183 0.1 102748
04:00+8nnw23965 0.1 102655
07:00+8nnw23959 0.1 102553
10:00+12ne467291 0.1 1026894
13:00+14ne456775 0.1 1026932
16:00+14ne356757 0.0 1024943
19:00+10nne459136 0.1 1023187
22:00+10n339353 0.1 1024103
1 march, mon
mon101:00+10n349576 0.2 1024149
04:00+10nne459542 0.2 1022248
07:00+11nne569254 0.3 1022419
10:00+12nne5685100 0.1 1023569
13:00+13n4580100 0.3 1023604
16:00+13n5683100 0.1 1021541
19:00+11nnw6892100 0.1 1022422
22:00+11nnw6993100 0.0 1024428